www.pogodaiklimat.ru

Погода и климат >> Архив погоды >> Кипр >> Гиалуса


ПОГОДА в Гиалусе

  • Прогноз погоды в Гиалусе
  • Монитор погоды в Гиалусе

АРХИВ ПОГОДЫ в Гиалусе

Время (UTC), дата Ветер
(напр.,м/с)
 
Видим.   Явления Облачность Т
(С)
Тd
(С)
f
(%)
Тe
(С)
Тes
(С)
Комфортность P
(гПа)
Po
(гПа)
Тmin
(С)
Tmax
(С)
R
(мм)
R24
(мм)
S
(см)
00 12.04 ЮЗ 2 10 км 1/1 900 м
[Cu hum]
+13.9 +11.3 84 +14 +14 1017.4 1002.8
03 12.04 штиль 0 10 км 1/1 900 м
[Cu hum]
+12.3 +10.8 91 +12 +12 1017.3 1002.6
06 12.04 штиль 0 10 км 1/1 900 м
[Cu hum]
+15.9 +12.8 82 +16 +24 1018.1 1003.6 +12.3
09 12.04 З 3 10 км 1/1 900 м
[Cu hum]
+17.7 +13.0 74 +18 +31 опасность
простуды
1018.3 1003.9
12 12.04 С 2 10 км 3/1 750 м
[Cu hum Ci fib]
+18.9 +13.1 69 +20 +31 1017.6 1003.3
15 12.04 С 2 10 км 4/1 750 м
[Cu hum Ci fib]
+18.3 +11.9 66 +19 +20 1016.2 1001.9
18 12.04 штиль 0 10 км 3/3 750 м
[Cu hum]
+14.4 +11.7 84 +14 +14 1016.3 1001.8 +19.6
21 12.04 штиль 0 10 км ясно +13.4 +11.9 91 +13 +13 1016.7 1002.1
00 13.04 штиль 0 10 км ясно +13.3 +12.1 92 +13 +13 1015.7 1001.1
03 13.04 СЗ 2 10 км ясно +8.4 +6.9 90 +7 +7 1013.4 1009.7
06 13.04 СВ 2 10 км ясно +15.8 +14.6 93 +16 +23 1014.7 1000.3 +12.3
09 13.04 С 5 10 км ясно +19.5 +13.5 68 +21 +30 комфорт 1014.6 1000.4
12 13.04 С 3 10 км 9/1 900 м
[Cu hum Cs]
+20.8 +14.5 67 +24 +32 комфорт 1013.2 999.1
15 13.04 СВ 4 10 км 9/1 900 м
[Cu hum Cs]
+19.8 +15.3 75 +22 +23 комфорт 1011.7 997.5
18 13.04 СВ 5 10 км 6/1 900 м
[Cu hum Ci sp]
+20.5 +2.0 29 +21 +21 комфорт 1010.7 996.5 +22.1
21 13.04 СВ 5 10 км 4/1 900 м
[Cu hum Ci fib]
+17.8 +9.3 57 +17 +17 1008.4 994.2
00 14.04 СВ 5 10 км 1/1 900 м
[Cu hum]
+17.5 +11.7 69 +17 +17 1006.9 992.7
03 14.04 СВ 5 10 км 4/1 900 м
[Cu hum Ci fib]
+16.6 +11.8 73 +16 +16 1004.4 990.1
06 14.04 СВ 4 9000 м пыль 5/1 900 м
[Cu hum Ci sp]
+18.7 +13.1 70 +19 +23 1003.7 989.6 +16.4
09 14.04 Ю 9 9000 м дымка ясно +21.0 +15.7 72 +24 +25 комфорт 1003.2 989.2
12 14.04 Ю 7 8000 м пыль ясно +22.2 +15.7 67 +26 +30 душно 1004.8 990.8
15 14.04 З 9 9000 м дымка ясно +18.9 +13.5 71 +19 +19 1006.7 992.6
18 14.04 З 4 9000 м дымка ясно +16.4 +13.1 81 +16 +16 1010.0 995.7 +23.0
21 14.04 З 5 10 км 3/0
[Ci fib]
+15.8 +12.2 79 +15 +15 1012.7 998.3
00 15.04 З 4 10 км 8/0
[Ci sp]
+15.5 +11.5 77 +15 +15 1013.2 998.8
03 15.04 штиль 0 10 км 8/0
[Ci sp]
+14.3 +9.3 72 +14 +14 1013.2 998.8
06 15.04 Ю 3 10 км 8/1 900 м
[Cu hum Ac trans Ci sp]
+16.2 +8.8 62 +16 +19 1014.2 999.8 +13.7
09 15.04 ЮВ 2 10 км 9/4 750 м
[Cu Sc Ac trans]
+17.4 +9.3 59 +18 +23 1014.5 1000.2
12 15.04 штиль 0 10 км 10/4 750 м
[Cu Sc Ac As]
+16.7 +10.8 68 +17 +20 1014.9 1000.5
15 15.04 Ю 4 10 км 10/4 750 м
[Cu Sc Ac As]
+15.9 +10.2 69 +15 +15 1013.8 999.4
18 15.04 ЮЗ 2 10 км слаб. ливневой дождь 9/5 750 м
[Cu Sc Ac trans]
+13.7 +12.5 92 +13 +13 1014.5 1000.0 +18.0 6
21 15.04 штиль 0 10 км 10/4 750 м
[Cu Sc Ac As]
+14.3 +12.0 86 +14 +14 1014.7 1000.2
00 16.04 Ю 2 10 км 9/5 750 м
[Cu Sc Ac trans]
+13.1 +10.5 84 +13 +13 1012.7 998.2
03 16.04 штиль 0 10 км 9/5 750 м
[Cu Sc Ac trans]
+12.4 +10.0 85 +12 +12 1011.4 996.8
06 16.04 штиль 0 10 км 9/5 750 м
[Cu Sc Ac trans]
+14.1 +11.4 84 +14 +16 1011.5 997.0 +12.3
12 16.04 З 4 10 км в посл. час ливневой дождь 6/5 750 м
[Cu Sc Ac trans]
+13.0 +11.2 89 +11 +16 1010.8 996.3 4
15 16.04 СЗ 2 10 км 6/5 750 м
[Cu med, cong Ac trans]
+14.5 +7.8 64 +15 +15 1009.8 995.4
18 16.04 З 3 10 км 6/4 750 м
[Cu hum Ci fib]
+12.7 +9.5 81 +11 +11 1009.9 995.4 +17.0 4
21 16.04 З 6 10 км 5/5 750 м
[Cu Sc Ac trans]
+13.8 +9.2 74 +12 +12 1010.0 995.6
00 17.04 З 6 10 км 4/4 750 м
[Cu Sc]
+13.7 +8.7 72 +12 +12 1008.5 994.1
03 17.04 З 7 10 км 3/3 900 м
[Cu hum]
+13.9 +9.8 76 +12 +12 1007.9 993.5
06 17.04 СЗ 3 10 км 1/1 750 м
[Cu hum]
+15.4 +10.8 74 +15 +20 1009.1 994.8 +12.6
09 17.04 З 5 10 км 5/5 750 м
[Cu med, cong]
+18.2 +11.6 65 +18 +23 1010.6 996.4
12 17.04 З 7 10 км 6/6 750 м
[Cb cap]
+18.1 +10.9 63 +18 +19 1010.8 996.6
15 17.04 З 4 10 км 5/5 750 м
[Cb cap]
+17.6 +11.1 66 +17 +18 1011.1 996.8
18 17.04 З 5 10 км 1/1 900 м
[Cu hum]
+15.2 +9.7 70 +14 +14 1012.0 997.6 +18.8
21 17.04 З 5 10 км 1/1 900 м
[Cu hum]
+14.9 +11.4 80 +13 +13 1013.3 998.9
00 18.04 З 3 10 км 1/1 900 м
[Cu hum]
+13.8 +10.3 79 +13 +13 1013.3 998.8
03 18.04 Ю 2 10 км 1/1 900 м
[Cu hum]
+12.1 +10.1 88 +11 +11 1013.1 998.5
06 18.04 Ю 2 10 км 1/1 900 м
[Cu hum]
+15.1 +11.2 78 +15 +21 1014.2 999.8 +11.6
09 18.04 ЮВ 4 10 км 3/3 750 м
[Cu hum]
+19.3 +9.2 52 +20 +30 1014.4 1000.2
12 18.04 Ю 3 10 км 5/5 750 м
[Cu med, cong]
+19.0 +8.8 52 +20 +25 1013.8 999.6
15 18.04 Ю 4 10 км 6/6 750 м
[Cu med, cong]
+16.4 +9.7 65 +16 +16 1013.5 999.2
18 18.04 ЮВ 3 10 км 8/4 750 м
[Cu med, cong Ci sp]
+13.0 +6.8 66 +12 +12 1013.9 999.4 +19.9
21 18.04 ЮВ 2 10 км 8/1 750 м
[Cu hum Ci fib]
+13.2 +9.9 80 +12 +12 1013.7 999.2

 

Местоположение метеостанции Гиалуса (Кипр): широта 35.53 долгота 34.02 высота над уровнем моря 123 м.

В архиве по умолчанию представлена погода в Гиалусе за последнюю неделю. Архивные данные за месяц целиком и за предыдущие месяцы, начиная с января 2011 года, Вы можете получить, выбрав интересующий диапазон дат из раскрывающегося списка и нажав кнопку "Ввод!".


*Определитесь, кто Вы:
робот инопланетянин человек

Внимание! Время в таблицах - всемирное. Для получения местного времени необходимо прибавить поправку, которая равна 2 ч.

Смотрите также архив погоды в соседних городах и на ближайших метеорологических станциях:

Погода в Искеле (Кипр) (31 км)
Погода в Ризокарпасо (Кипр) (33 км)
Погода в Лефконико (Кипр) (41 км)
Погода на Базе ВВС Gecitkale (Кипр) (42 км)
Погода в Фамагусте (Кипр) (45 км)
Погода в Unknown (Кипр) (59 км)
Погода в Никосии (Кипр) (63 км)
Погода в Киринии (Кипр) (67 км)
Погода в Аталассе (Кипр) (70 км)
Погода в Ларнаке (Кипр) (81 км)

Пояснения к столбцам:

Ветер - указаны скорость ветра в м/с - средняя за 10 мин, порывы в срок и между сроками (в фигурных скобках) и направление, откуда дует ветер: С - северный, СВ - северо-восточный, В - восточный, ЮВ - юго-восточный, Ю - южный, ЮЗ - юго-западный, З - западный, СЗ - северо-западный.
Видимость - горизонтальная дальность видимости в метрах или километрах. При видимости от 1 до 10 км при отсутствии осадков обычно наблюдается дымка, при ухудшении видимости до 1 км и менее - туман. В сухую погоду видимость может ухудшаться дымом, пылью или мглою.
Явления - указаны атмосферные явления, наблюдавшиеся в срок или в последний час перед сроком; фигурными скобками обозначены явления, наблюдавшиеся между сроками (за 1-3 часа до срока); квадратными скобками обозначены град или гололедные отложения с указанием их диаметра в мм.
Облачность - указаны через наклонную черту общая и нижняя облачность в баллах и высота нижней границы облаков в метрах; квадратными скобками обозначены формы облаков: Ci - перистые, Cs - перисто-слоистые, Cc - перисто-кучевые, Ac - высококучевые, As - высокослоистые, Sc - слоисто-кучевые, Ns - слоисто-дождевые, Cu - кучевые, Cb - кучево-дождевые. Подробнее классификацию облаков см. в Атласе облаков (PDF).
T - Температура воздуха - температура, измеренная на высоте 2 м над землей.
Td - Температура точки росы - температура, при понижении до которой содержащийся в воздухе водяной пар достигнет насыщения.
f - Относительная влажность воздуха - влажноcть воздуха, измеренная на высоте 2 м над землей.
Te - Эффективная температура - температура, которую ощущает одетый по сезону человек в тени. Характеристика душности погоды. При расчете учитывается влияние влажности воздуха и скорости ветра на теплоощущения человека.
Tes - Эффективная температура на солнце - температура, которую ощущает человек, с поправкой на солнечный нагрев. Характеристика знойности погоды. Зависит от высоты солнца над горизонтом, облачности и скорости ветра. Ночью, в пасмурную погоду, а также при ветре 12 м/с и более поправка равна нулю.
P - Атмосферное давление - приведенное к уровню моря атмосферное давление.
Po - Атмосферное давление - измеренное на уровне метеостанции атмосферное давление.
Tmin - Минимальная температура - минимум температуры воздуха на высоте 2 м над землей.
Tmax - Максимальная температура - максимум температуры воздуха на высоте 2 м над землей.
R - Количество осадков - Количество выпавших осадков за период времени, мм. При наведении курсора мыши на число - период времени, за который выпало указанное количество осадков.
R24 - Количество осадков - Количество выпавших осадков за 24 часа, мм.
S - Снежный покров - Высота снежного покрова, см. При наведении курсора мыши на число - состояние снежного покрова и степень покрытия местности в баллах.